Change the Weather History Date:

Friday, July 12, 2013

  Actual Average Record
Temperature  
Mean Temperature 71 °F -  
Max Temperature 86 °F 83 °F 105 °F (2006)
Min Temperature 56 °F 54 °F 43 °F (2003)
Cooling Degree Days 6 5  
Month to date cooling degree days 58 46  
Year to date cooling degree days 91 96  
Since 1 June cooling degree days 84 91  
Growing Degree Days 23 (Base 50)    
Moisture  
Dew Point 61 °F    
Average Humidity 67    
Maximum Humidity 100    
Minimum Humidity 40    
Precipitation  
Precipitation 0.00 in 0.09 in 0.57 in (2014)
Month to date precipitation 0.67 0.97  
Year to date precipitation 13.63 9.15  
Sea Level Pressure  
Sea Level Pressure 29.77 in    
Wind  
Wind Speed 7 mph (WNW)    
Max Wind Speed 18 mph    
Max Gust Speed 23 mph    
Visibility 10 miles    
Events Thunderstorm    
T = Trace of Precipitation, MM = Missing Value Source: NWS Daily Summary

Daily Weather History Graph

Daily Weather History Graph

Search for Another Location

Airport or City:

Trip Planner

Search our weather history database for the weather conditions in past years. The results will help you decide how hot, cold, wet, or windy it might be!

Date:

Astronomy

Jul. 12, 2013 Rise Set
Actual Time 5:12 AM MDT 8:40 PM MDT
Civil Twilight 4:34 AM MDT 9:17 PM MDT
Nautical Twilight 3:45 AM MDT 10:06 PM MDT
Astronomical Twilight 2:41 AM MDT 11:09 PM MDT
Moon 9:48 AM MDT (7/12) 10:32 PM MDT (7/12)
Length of Visible Light 16h 42m
Length of Day
15h 28m
Waxing Crescent, 18% of the Moon is Illuminated
Jul 12
Waxing Crescent
Jul 15
First Quarter
Jul 22
Full
Jul 29
Last Quarter
Aug 6
New

Hourly Weather History & Observations

Time (MDT) Temp. Heat Index Dew Point Humidity Pressure Visibility Wind Dir Wind Speed Gust Speed Precip Events Conditions
12:53 AM 73.9 °F - 59.0 °F 59% 29.62 in 10.0 mi SSE 10.4 mph - N/A   Clear
1:53 AM 69.1 °F - 60.1 °F 73% 29.62 in 10.0 mi Calm Calm - N/A   Clear
2:53 AM 73.0 °F - 57.9 °F 59% 29.60 in 10.0 mi SE 10.4 mph - N/A   Scattered Clouds
3:11 AM 71.6 °F - 60.8 °F 69% 29.68 in 10.0 mi South 8.1 mph - N/A Thunderstorm Thunderstorm
3:39 AM 71.6 °F - 60.8 °F 69% 29.69 in 10.0 mi South 5.8 mph - N/A   Scattered Clouds
3:53 AM 71.1 °F - 61.0 °F 70% 29.62 in 10.0 mi West 8.1 mph - N/A   Clear
4:53 AM 64.9 °F - 60.1 °F 84% 29.64 in 10.0 mi West 13.8 mph - N/A   Clear
5:53 AM 66.0 °F - 62.1 °F 87% 29.68 in 10.0 mi WNW 11.5 mph - N/A   Clear
6:53 AM 70.0 °F - 61.0 °F 73% 29.70 in 10.0 mi NNW 16.1 mph - N/A   Clear
7:53 AM 71.1 °F - 62.1 °F 73% 29.76 in 10.0 mi WNW 10.4 mph - N/A   Clear
8:53 AM 73.0 °F - 62.1 °F 68% 29.73 in 10.0 mi NNW 12.7 mph - N/A   Clear
9:53 AM 73.0 °F - 64.0 °F 73% 29.75 in 10.0 mi NNW 4.6 mph - N/A   Clear
10:53 AM 79.0 °F - 63.0 °F 58% 29.78 in 10.0 mi North 5.8 mph - N/A   Clear
11:53 AM 77.0 °F - 64.0 °F 64% 29.80 in 10.0 mi West 4.6 mph - N/A   Clear
12:53 PM 82.0 °F 82.4 °F 60.1 °F 47% 29.80 in 10.0 mi WNW 8.1 mph - N/A   Clear
1:53 PM 82.9 °F 82.1 °F 55.9 °F 39% 29.82 in 10.0 mi Variable 3.5 mph - N/A   Clear
2:53 PM 84.9 °F 84.4 °F 59.0 °F 41% 29.81 in 10.0 mi Variable 5.8 mph - N/A   Clear
3:53 PM 84.0 °F 84.4 °F 61.0 °F 46% 29.82 in 10.0 mi WNW 11.5 mph - N/A   Mostly Cloudy
4:53 PM 82.0 °F 83.0 °F 62.1 °F 51% 29.83 in 10.0 mi WNW 15.0 mph - N/A   Partly Cloudy
5:53 PM 80.1 °F 81.2 °F 62.1 °F 54% 29.84 in 10.0 mi NW 9.2 mph - N/A   Clear
6:53 PM 75.9 °F - 64.0 °F 67% 29.86 in 10.0 mi NW 5.8 mph - N/A   Clear
7:53 PM 75.0 °F - 64.9 °F 71% 29.86 in 10.0 mi Calm Calm - N/A   Clear
8:53 PM 73.0 °F - 66.0 °F 79% 29.87 in 10.0 mi Calm Calm - N/A   Clear
9:53 PM 66.9 °F - 64.0 °F 90% 29.90 in 10.0 mi Calm Calm - N/A   Clear
10:53 PM 62.1 °F - 59.0 °F 90% 29.91 in 10.0 mi Calm Calm - N/A   Clear
11:53 PM 57.9 °F - 57.0 °F 97% 29.92 in 10.0 mi NNW 3.5 mph - N/A   Clear